Wind_Speed
17 18 19 19 18 15 14 13 16 22 25 23 25 32 26 29 38 36 24 29 29 28 27 30 33 35 36 36 35 33 20 17 17 18 16 21 22 22 22 19 20 18 17 12 11
19 18 18 19 16 15 13 11 13 19 24 27 28 27 24 25 32 40 29 25 26 28 27 29 32 35 36 36 34 33 17 16 17 17 19 20 21 20 20 18 18 17 16 14 13
21 19 17 17 16 15 14 11 14 16 22 25 25 25 25 24 31 38 35 29 32 32 27 28 30 33 34 36 37 33 19 23 23 20 19 19 21 20 19 18 18 16 15 15 14
21 18 16 19 14 14 16 16 8 13 16 21 24 24 25 25 24 39 38 28 30 34 30 32 32 34 26 35 37 30 28 25 23 20 19 19 20 20 20 23 18 17 15 15 15
19 18 18 18 11 14 17 7 5 13 14 20 25 24 25 26 33 36 35 43 29 33 32 31 33 27 21 25 34 27 30 26 22 22 22 21 21 22 21 18 17 16 16 17 17
16 17 18 13 15 17 18 8 5 11 15 16 20 18 20 23 27 24 36 28 33 32 31 31 30 21 18 23 25 29 26 26 23 22 22 22 22 22 21 19 18 17 17 17 17
14 16 15 14 14 17 16 18 17 17 16 16 20 16 18 22 21 26 17 25 36 35 32 30 20 26 30 29 31 23 25 22 23 23 23 22 23 23 20 19 19 18 17 16 15
12 13 12 12 13 13 15 18 19 18 18 23 25 18 16 15 16 26 27 26 39 34 34 36 30 23 20 27 28 22 21 23 24 24 23 22 16 24 21 20 19 18 17 16 16
13 12 11 10 10 9 10 14 13 12 13 12 17 16 13 13 19 22 8 28 34 31 30 30 30 25 25 25 27 23 15 17 21 24 23 22 10 19 22 20 19 17 18 18 18
15 16 14 10 9 8 6 8 8 7 8 11 10 10 12 14 14 10 14 25 33 30 30 29 23 23 24 25 23 20 15 15 19 26 25 24 17 14 20 21 20 21 21 20 20
15 15 14 12 11 8 7 8 7 9 7 9 11 14 17 17 8 21 38 40 35 25 25 26 19 23 24 20 11 17 16 17 22 24 25 22 25 19 17 21 23 22 22 21 20
16 16 15 13 13 13 13 14 13 15 19 16 21 23 20 19 21 35 37 37 27 26 23 24 19 24 27 24 15 18 18 14 19 17 21 20 23 22 23 21 19 19 19 20 22
14 14 15 17 17 14 19 17 13 15 16 18 18 23 26 28 29 35 29 20 19 23 26 22 17 23 23 21 15 15 16 15 15 15 10 11 17 20 22 22 20 20 21 23 24
6 8 9 11 8 9 8 7 9 13 9 14 12 15 20 29 25 32 26 30 21 24 26 18 21 20 20 22 15 18 17 15 12 10 3 8 4 9 16 19 20 20 21 23 25
14 8 6 9 7 4 5 6 6 5 3 9 13 16 21 14 26 26 23 22 22 27 14 21 19 13 17 20 18 16 15 14 11 7 4 4 3 6 13 15 17 20 22 24 23
19 16 11 2 5 1 4 4 5 5 6 8 12 19 26 25 22 22 22 22 17 17 24 27 20 16 17 16 11 18 13 9 7 4 2 7 5 4 7 12 16 17 20 20 18
25 23 16 7 1 3 3 4 7 8 5 12 19 21 19 23 18 17 22 18 9 18 25 20 16 14 17 12 14 15 12 4 2 1 1 4 6 9 9 10 12 9 8 9 10
24 24 21 15 9 5 6 10 12 7 10 19 17 16 16 14 14 17 11 12 15 12 18 9 7 14 13 14 7 13 9 2 3 5 4 5 6 3 4 4 9 9 9 8 8
20 22 24 17 16 10 13 14 7 10 20 13 14 11 9 9 12 10 9 9 11 17 5 7 7 11 14 13 15 9 5 5 2 1 1 4 5 8 8 9 11 9 8 7 8
17 19 19 19 15 5 15 17 17 17 13 7 4 3 8 11 6 6 4 12 15 8 9 8 9 10 13 11 10 12 11 2 2 2 3 5 4 4 4 4 7 9 7 8 9
14 17 17 14 10 12 21 17 13 12 11 6 5 7 10 10 7 4 3 17 13 10 8 12 6 9 13 8 6 8 8 5 4 2 2 2 6 2 2 2 7 7 8 11 13
13 14 14 13 10 11 13 12 11 11 10 9 9 9 7 9 2 3 6 10 12 13 11 7 6 8 6 11 12 14 9 9 4 4 4 2 0 2 4 3 6 9 12 15 18
11 12 10 8 9 12 11 12 11 9 6 5 4 5 8 8 2 7 12 13 14 12 11 9 6 8 2 7 14 16 17 14 12 6 8 3 3 8 6 4 10 15 18 20 19
8 4 10 10 8 10 10 7 7 7 8 7 7 6 4 3 5 7 7 13 12 11 10 11 8 4 2 4 6 11 16 18 14 6 5 11 1 6 6 17 19 22 18 16 17
5 5 6 5 7 7 6 4 5 5 6 4 5 6 5 3 7 6 8 9 9 9 9 7 4 10 8 6 5 7 10 15 22 19 9 3 7 9 16 23 20 15 14 13 16
3 3 3 3 3 3 3 3 3 3 3 3 5 4 6 5 7 6 5 7 6 8 8 7 3 7 10 12 14 16 18 19 19 22 26 23 25 22 17 14 13 11 12 18 26
6 4 3 3 2 2 1 1 2 2 1 1 1 0 2 3 3 5 6 7 6 8 9 8 6 4 3 7 8 14 21 25 24 24 21 22 13 16 13 13 10 12 20 30 28
Wind_Direction
326 327 328 328 318 305 290 266 246 228 224 221 219 219 217 210 203 206 207 217 210 205 201 199 198 192 190 196 198 197 183 194 191 195 209 201 201 200 206 208 209 215 231 247 247
327 329 324 325 320 307 306 273 256 233 219 217 213 217 218 206 203 204 212 215 211 202 200 197 196 194 191 192 193 195 199 199 196 197 212 204 204 208 204 211 214 221 232 243 250
338 336 326 321 318 308 298 291 271 232 222 216 208 206 209 205 201 203 203 203 201 197 195 190 194 195 197 192 191 192 193 207 204 205 210 205 207 207 208 211 222 227 233 245 254
335 338 333 325 317 311 296 298 240 218 213 205 202 200 200 204 201 204 210 216 199 197 190 186 189 189 194 192 191 192 199 200 201 202 203 205 210 205 204 214 221 230 238 249 257
343 347 342 343 337 319 315 276 183 197 202 196 195 195 200 200 209 199 204 214 203 196 192 188 187 180 188 191 193 198 199 201 199 202 205 208 206 210 217 217 223 234 243 251 257
356 4 3 14 356 9 22 132 159 187 188 189 192 194 196 208 212 201 209 199 194 191 191 181 187 174 184 195 190 203 197 199 197 198 203 206 207 209 215 220 229 238 246 250 252
16 21 19 36 23 29 39 45 69 80 180 179 174 192 187 209 220 225 197 184 196 187 185 170 175 180 189 189 190 193 197 198 199 197 200 204 209 214 219 226 233 239 242 243 242
22 30 26 43 35 38 53 63 74 85 97 134 149 160 182 210 203 218 232 188 174 185 174 169 175 180 172 187 183 180 189 191 198 198 199 200 221 223 225 230 234 238 240 240 243
31 42 41 51 48 43 61 72 89 91 96 129 156 148 143 149 166 182 201 183 166 168 174 171 167 182 181 174 176 181 192 194 196 198 200 199 204 232 226 228 232 237 239 241 247
39 52 50 46 47 43 39 74 82 91 72 136 155 143 131 127 140 192 201 180 157 157 161 167 175 176 174 176 179 179 177 188 197 198 203 204 205 229 222 230 236 239 240 242 253
32 46 53 50 59 46 30 51 39 47 81 121 155 135 132 121 128 157 155 151 141 150 161 170 167 178 177 179 187 180 177 176 198 202 204 210 218 231 235 236 238 243 247 256 262
35 52 68 73 65 57 60 69 80 73 78 95 123 130 135 130 144 139 139 134 134 156 161 155 167 173 181 178 183 177 176 180 201 200 207 226 232 237 243 244 240 245 252 262 266
38 47 53 60 61 66 85 81 71 65 65 79 126 135 123 137 142 135 117 127 149 148 155 156 181 176 173 167 155 163 184 192 199 197 211 244 264 247 244 250 249 251 258 261 265
15 6 358 2 32 56 76 31 49 64 61 39 76 128 148 133 138 128 122 130 131 142 147 159 150 150 152 158 159 164 169 183 193 182 201 209 279 247 241 248 251 253 254 259 263
19 357 346 330 328 32 45 43 40 28 49 17 67 132 140 126 127 142 132 136 144 146 152 135 142 131 150 162 159 168 158 164 166 170 181 220 242 239 240 240 249 250 254 258 265
29 24 25 104 293 81 80 55 23 45 40 45 88 136 121 121 123 136 149 134 118 142 146 139 149 146 152 150 151 152 152 149 150 146 215 204 215 254 232 231 251 261 266 265 263
35 36 42 55 154 342 85 60 51 44 58 90 85 104 123 124 124 123 139 152 133 121 121 132 138 139 139 138 145 152 148 102 121 170 257 204 205 238 267 251 266 261 248 235 240
37 39 38 52 62 77 92 87 62 71 109 112 85 107 106 113 107 134 121 121 134 148 125 117 134 146 159 151 155 166 169 172 170 182 142 207 228 248 242 259 239 235 238 243 253
44 43 46 50 59 96 107 93 102 106 129 107 91 111 110 122 125 122 116 142 137 139 141 127 122 167 173 170 163 184 187 168 96 75 280 208 268 262 261 271 240 222 232 244 252
52 55 52 49 61 121 116 99 111 103 113 111 86 116 130 144 130 125 112 146 140 142 147 144 117 165 175 173 183 172 188 168 174 149 225 203 241 206 279 256 210 213 233 245 257
54 69 67 65 72 97 105 106 123 122 128 105 82 122 142 159 131 87 143 152 149 153 153 140 147 169 170 184 194 185 190 191 176 193 289 273 122 208 286 174 190 219 241 254 270
48 61 74 82 85 87 90 95 100 96 87 92 102 118 136 151 111 93 150 166 152 148 142 137 133 138 178 203 206 202 206 203 236 199 228 283 340 197 132 150 207 237 258 274 285
45 52 46 67 96 101 100 111 114 118 131 120 111 124 141 141 122 147 168 170 175 162 157 161 149 124 168 249 232 228 226 210 216 204 220 253 123 193 205 238 274 277 278 289 295
45 40 53 45 52 92 101 95 88 81 79 89 100 102 100 85 142 166 177 175 180 183 179 179 179 190 177 188 195 215 224 219 210 215 230 230 169 219 261 285 288 297 295 298 305
32 42 51 53 50 44 48 83 116 114 118 112 104 115 131 105 111 147 161 175 187 190 191 195 199 220 236 235 221 215 225 224 221 220 224 237 258 232 274 285 285 283 284 295 306
9 8 10 35 27 48 44 33 41 57 100 125 143 135 141 150 158 174 166 174 192 204 209 219 233 236 258 256 257 255 245 241 238 239 247 255 269 279 274 282 286 284 294 305 308
5 353 343 314 310 325 320 352 357 355 22 59 31 349 179 166 172 187 193 197 204 204 213 222 228 241 244 260 269 274 252 241 244 253 255 247 266 264 281 281 277 288 302 310 309
Height
3038 3033 3030 3027 3024 3020 3017 3015 3015 3016 3020 3024 3027 3032 3037 3043 3050 3056 3062 3063 3067 3075 3081 3086 3092 3097 3101 3107 3114 3119 3125 3128 3131 3134 3134 3135 3139 3141 3144 3147 3150 3152 3153 3156 3157
3036 3032 3028 3025 3021 3018 3014 3012 3011 3012 3015 3019 3023 3028 3034 3040 3047 3052 3056 3058 3065 3072 3077 3084 3089 3094 3099 3103 3111 3117 3123 3128 3128 3131 3132 3135 3138 3141 3144 3146 3149 3150 3152 3154 3156
3035 3031 3027 3023 3019 3015 3012 3010 3008 3008 3011 3015 3021 3026 3032 3038 3042 3046 3051 3052 3057 3067 3074 3081 3087 3094 3098 3101 3106 3114 3121 3121 3125 3128 3131 3135 3137 3140 3143 3145 3147 3149 3150 3152 3154
3034 3029 3025 3020 3016 3013 3009 3005 3003 3006 3008 3013 3018 3023 3029 3034 3040 3041 3046 3050 3057 3064 3070 3075 3083 3089 3095 3099 3103 3110 3114 3119 3123 3127 3130 3133 3136 3138 3141 3142 3145 3146 3148 3150 3151
3033 3028 3023 3018 3015 3012 3005 3001 3002 3004 3008 3012 3017 3022 3026 3031 3035 3040 3045 3048 3057 3063 3069 3075 3081 3088 3094 3098 3104 3107 3112 3118 3122 3125 3127 3131 3134 3136 3139 3142 3143 3145 3146 3147 3148
3032 3028 3024 3021 3017 3012 3007 3004 3003 3005 3007 3011 3017 3022 3026 3031 3032 3038 3042 3047 3051 3062 3069 3074 3081 3089 3095 3097 3105 3107 3113 3117 3120 3122 3126 3130 3133 3135 3137 3140 3142 3143 3144 3145 3146
3032 3029 3026 3022 3020 3016 3012 3008 3004 3002 3005 3010 3016 3022 3026 3030 3033 3037 3039 3044 3053 3059 3067 3073 3084 3087 3088 3094 3100 3107 3113 3117 3119 3120 3124 3128 3131 3133 3136 3138 3139 3141 3142 3143 3144
3034 3030 3028 3025 3022 3019 3017 3014 3012 3011 3011 3009 3016 3022 3025 3028 3032 3033 3039 3041 3046 3058 3064 3069 3077 3084 3089 3092 3101 3107 3112 3115 3116 3119 3123 3128 3130 3130 3133 3136 3138 3139 3140 3141 3143
3037 3033 3030 3028 3026 3023 3021 3020 3018 3016 3016 3018 3020 3022 3025 3026 3031 3034 3037 3039 3043 3056 3065 3071 3078 3082 3089 3093 3101 3105 3108 3114 3116 3118 3121 3126 3128 3127 3130 3133 3135 3136 3137 3139 3139
3041 3037 3033 3031 3030 3027 3025 3024 3022 3021 3020 3020 3022 3026 3025 3027 3027 3034 3036 3042 3049 3057 3066 3073 3079 3083 3089 3092 3095 3101 3108 3112 3113 3117 3119 3122 3124 3125 3127 3130 3132 3133 3134 3135 3136
3044 3040 3036 3033 3032 3029 3028 3028 3028 3026 3020 3019 3022 3024 3025 3026 3030 3032 3036 3042 3050 3062 3067 3074 3081 3083 3088 3095 3099 3103 3107 3111 3111 3115 3119 3120 3122 3123 3125 3127 3129 3131 3132 3132 3133
3048 3044 3040 3035 3034 3032 3031 3031 3030 3030 3025 3021 3023 3024 3026 3027 3031 3035 3041 3048 3054 3063 3068 3077 3082 3082 3086 3091 3097 3102 3107 3110 3112 3115 3119 3119 3120 3122 3123 3124 3127 3129 3130 3130 3130
3052 3050 3046 3041 3038 3037 3037 3035 3033 3032 3029 3029 3029 3029 3032 3034 3037 3042 3045 3052 3061 3065 3071 3076 3078 3083 3088 3093 3099 3103 3107 3108 3112 3115 3118 3119 3119 3119 3121 3122 3124 3126 3127 3127 3126
3052 3051 3049 3045 3044 3041 3041 3038 3036 3034 3035 3037 3035 3037 3038 3039 3044 3047 3050 3058 3065 3068 3073 3078 3083 3086 3089 3093 3099 3100 3103 3108 3112 3116 3118 3119 3120 3117 3118 3119 3120 3121 3122 3123 3122
3052 3049 3048 3046 3044 3042 3042 3038 3037 3037 3037 3043 3040 3040 3042 3046 3052 3055 3058 3062 3066 3069 3073 3079 3084 3088 3090 3093 3096 3099 3104 3109 3112 3115 3116 3118 3121 3116 3115 3116 3116 3116 3117 3117 3118
3054 3050 3049 3049 3044 3045 3042 3039 3041 3042 3045 3047 3047 3048 3049 3052 3056 3060 3062 3067 3069 3071 3074 3079 3085 3088 3091 3094 3097 3101 3107 3111 3113 3114 3117 3116 3120 3114 3114 3113 3112 3113 3113 3114 3114
3057 3053 3049 3047 3048 3045 3045 3044 3045 3045 3054 3056 3053 3053 3056 3058 3060 3064 3068 3070 3072 3074 3077 3082 3088 3091 3092 3097 3099 3103 3108 3112 3116 3115 3113 3114 3117 3110 3110 3110 3111 3111 3110 3111 3111
3061 3057 3053 3050 3048 3046 3046 3047 3047 3053 3054 3057 3057 3059 3062 3065 3067 3068 3071 3073 3075 3076 3078 3083 3093 3092 3094 3097 3101 3103 3107 3108 3110 3109 3110 3112 3111 3109 3107 3107 3107 3108 3108 3109 3110
3066 3062 3059 3056 3053 3050 3050 3050 3057 3059 3060 3061 3063 3066 3066 3068 3071 3073 3074 3075 3076 3077 3081 3085 3090 3093 3096 3098 3101 3104 3108 3109 3108 3108 3109 3107 3107 3106 3105 3104 3105 3106 3106 3108 3108
3071 3068 3064 3062 3059 3057 3055 3055 3061 3063 3065 3066 3068 3068 3071 3072 3074 3075 3075 3076 3078 3080 3081 3084 3090 3095 3097 3100 3102 3103 3107 3110 3107 3109 3105 3103 3104 3104 3103 3102 3103 3104 3105 3105 3105
3076 3072 3070 3069 3067 3066 3063 3063 3065 3065 3066 3066 3069 3071 3072 3072 3074 3075 3076 3078 3079 3081 3083 3086 3091 3097 3098 3100 3102 3104 3104 3105 3106 3106 3104 3100 3101 3102 3101 3101 3102 3103 3103 3102 3102
3079 3076 3075 3073 3073 3071 3069 3069 3069 3069 3069 3070 3071 3072 3074 3073 3075 3076 3077 3077 3080 3082 3085 3087 3091 3095 3098 3097 3099 3099 3102 3104 3105 3106 3106 3106 3103 3101 3101 3101 3101 3101 3101 3101 3100
3081 3078 3078 3076 3074 3073 3073 3074 3074 3074 3074 3074 3074 3074 3075 3075 3077 3076 3077 3079 3081 3082 3085 3088 3091 3094 3097 3100 3098 3097 3098 3099 3101 3103 3104 3103 3101 3100 3100 3099 3099 3099 3099 3098 3096
3083 3082 3080 3078 3076 3075 3074 3074 3074 3073 3073 3074 3074 3075 3076 3077 3077 3078 3078 3080 3082 3083 3085 3087 3089 3091 3093 3092 3093 3093 3094 3096 3100 3102 3101 3100 3100 3099 3098 3096 3096 3095 3094 3094 3092
3084 3084 3082 3081 3079 3078 3076 3075 3075 3075 3075 3075 3076 3076 3078 3079 3079 3079 3080 3081 3083 3084 3086 3088 3089 3089 3089 3090 3091 3091 3092 3093 3094 3096 3097 3096 3096 3097 3095 3093 3093 3092 3091 3090 3088
3084 3084 3083 3082 3081 3080 3080 3079 3078 3078 3078 3077 3077 3078 3078 3079 3079 3080 3081 3082 3083 3085 3086 3087 3087 3088 3088 3088 3088 3088 3088 3089 3090 3091 3090 3092 3091 3092 3090 3090 3089 3089 3088 3086 3084
3084 3083 3083 3082 3081 3081 3081 3080 3080 3079 3079 3078 3079 3078 3078 3079 3079 3080 3081 3081 3082 3084 3084 3086 3086 3087 3088 3086 3086 3085 3081 3082 3084 3085 3088 3088 3092 3089 3088 3087 3086 3086 3083 3080 3077